www.pogodaiklimat.ru

Погода и климат >> Архив погоды >> Россия >> Кемеровская область >> Юрга


ПОГОДА в Юрге

  • Прогноз погоды в Юрге
  • Монитор погоды в Юрге

АРХИВ ПОГОДЫ в Юрге

Время (UTC), дата Ветер
(напр.,м/с)
 
Видим.   Явления Облачность Т
(С)
Тd
(С)
f
(%)
Тe
(С)
Тes
(С)
Комфортность P
(гПа)
Po
(гПа)
Тmin
(С)
Tmax
(С)
R
(мм)
R24
(мм)
S
(см)
09 9.07 ЮЗ 2 20 км 9 баллов +26.1 +10.3 37 +27 +28 жарко 1003.1 985.3
12 9.07 ЮЗ 2 20 км 9/5 870 м
[Cu med, cong Ac trans Ci fib]
+26.0 +12.1 42 +27 +28 жарко 1002.1 984.3 +27.2
15 9.07 штиль 0 20 км 7 баллов +19.3 +14.3 73 +21 +21 комфорт 1003.5 985.3
18 9.07 СЗ 3 10 км слаб. ливневой дождь 10/10 700 м
[Cb cap]
+17.4 +13.8 79 +17 +17 1002.3 984.0
21 9.07 Ю 1 20 км ливневой дождь 10 баллов +15.3 +13.8 91 +16 +16 1002.5 984.0
00 10.07 З 2 20 км {гроза, ливн. осадки} 10/10 750 м
[Cb cap]
+15.4 +13.5 88 +15 +15 1003.8 985.3 +14.9 3
03 10.07 З 2 20 км 9 баллов +17.9 +14.0 78 +18 +19 1006.4 988.0
06 10.07 З 3 20 км 3/3 1000 м
[Cb cap]
+20.6 +12.6 60 +23 +33 комфорт 1007.5 989.3
09 10.07 СЗ 3 20 км 7 баллов +23.1 +10.5 45 +25 +28 комфорт 1008.8 990.7
12 10.07 З 5
{10}
20 км 9/9 900 м
[Cb cap]
+20.7 +10.8 53 +22 +23 комфорт 1010.3 992.0 +23.4
15 10.07 З 2 20 км 2 балла +17.6 +12.3 71 +18 +18 1014.5 996.0
18 10.07 СЗ 1 20 км 10 баллов +16.2 +12.6 79 +17 +17 1016.0 997.3
21 10.07 Ю 1 20 км 2 балла +10.6 +8.9 89 +10 +10 1017.8 998.7
00 11.07 штиль 0 20 км ясно +14.5 +11.5 82 +14 +16 1018.3 999.4 +8.7
03 11.07 СЗ 3 20 км 1 балл +18.1 +11.2 64 +18 +25 1019.9 1001.3
06 11.07 С 3 20 км 4/4 1000 м
[Cu med, cong]
+20.1 +7.5 44 +21 +29 комфорт 1019.8 1001.3
09 11.07 С 3 20 км 4 балла +21.5 +6.2 37 +22 +28 комфорт 1019.7 1001.3
12 11.07 С 2 20 км 3/1 1000 м
[Cu hum Ci fib]
+21.9 +7.0 38 +23 +25 комфорт 1018.7 1000.3 +22.3
15 11.07 штиль 0 20 км 2 балла +15.8 +9.9 68 +16 +16 1020.1 1001.3
18 11.07 штиль 0 20 км ясно +8.5 +6.5 87 +8 +8 1020.6 1001.3
21 11.07 штиль 0 20 км ясно +6.1 +4.4 89 +5 +5 1022.2 1002.7
00 12.07 С 1 20 км ясно +12.4 +9.3 81 +12 +14 1020.3 1001.3 +5.3
03 12.07 В 4 20 км ясно +20.5 +9.4 49 +22 +28 комфорт 1021.2 1002.7
06 12.07 В 3 20 км 3/3 1000 м
[Cu hum]
+23.2 +8.8 40 +25 +35 комфорт 1019.6 1001.3
09 12.07 В 3 20 км ясно +24.6 +8.9 37 +25 +35 комфорт 1018.2 1000.0
12 12.07 СВ 3 20 км ясно +24.3 +8.8 37 +25 +27 комфорт 1016.9 998.7 +25.0
15 12.07 СВ 1 20 км ясно +20.9 +9.5 48 +24 +24 комфорт 1018.4 1000.0
18 12.07 С 1 20 км ясно +14.3 +11.1 81 +15 +15 1018.8 1000.0
21 12.07 штиль 0 20 км ясно +12.8 +9.1 78 +12 +12 1017.6 998.7
00 13.07 С 1 20 км 3/0
[Ci fib]
+15.7 +10.0 69 +16 +18 1017.1 998.3 +9.4
03 13.07 С 2 20 км ясно +22.0 +11.7 52 +24 +33 комфорт 1017.0 998.7
06 13.07 СВ 4 20 км 7 баллов +25.1 +9.4 37 +26 +29 жарко 1015.4 997.3
12 13.07 С 3
{10}
20 км 10/0
[Ci sp]
+24.2 +10.2 41 +25 +27 комфорт 1013.4 995.3 +26.1
18 13.07 СВ 1 20 км 6 баллов +14.3 +10.7 79 +15 +15 1014.8 996.0
21 13.07 С 1 20 км 7 баллов +10.7 +8.6 87 +10 +10 1013.7 994.7
00 14.07 С 2 20 км 1/0
[Ci fib]
+17.2 +12.2 72 +18 +19 1012.8 994.2 +10.6
03 14.07 С 2 20 км 4 балла +22.8 +15.1 62 +27 +32 душно 1014.2 996.0
06 14.07 С 5 20 км 7 баллов +25.3 +16.2 57 +29 +31 душно 1012.7 994.7
09 14.07 СВ 4 20 км 4 балла +26.7 +10.8 37 +28 +32 жарко 1012.7 994.7
12 14.07 С 4
{10}
20 км 3/0
[Ci fib]
+25.8 +9.3 35 +26 +28 жарко 1012.1 994.1 +26.7
15 14.07 С 1 20 км 4 балла +21.3 +11.9 55 +23 +23 комфорт 1014.3 996.0
18 14.07 штиль 0 20 км ясно +11.9 +9.5 85 +11 +11 1014.9 996.0
21 14.07 штиль 0 20 км ясно +9.1 +7.2 88 +8 +8 1013.8 994.7
00 15.07 С 2 20 км ясно +15.7 +10.5 71 +16 +17 1012.0 993.4 +8.3
03 15.07 С 3 20 км ясно +20.0 +9.8 52 +22 +29 комфорт 1013.1 994.7
06 15.07 С 5 20 км ясно +22.8 +9.2 42 +24 +32 комфорт 1011.5 993.3
09 15.07 С 5 20 км 7 баллов +23.4 +10.1 43 +25 +27 комфорт 1010.1 992.0
12 15.07 С 4
{12}
20 км 3/3 1000 м
[Cb cap]
+22.4 +8.6 41 +24 +25 комфорт 1010.0 991.8 +23.9
15 15.07 С 1 20 км 2 балла +19.4 +10.9 58 +22 +22 комфорт 1011.7 993.3
18 15.07 С 1 20 км ясно +13.7 +10.3 80 +14 +14 1010.7 992.0
21 15.07 С 1 20 км 10 баллов +14.6 +11.4 81 +15 +15 1009.3 990.7
00 16.07 С 1 20 км 10/10 870 м
[Cb cap]
+15.7 +12.0 79 +16 +16 1007.9 989.4 +12.2
03 16.07 С 1 20 км 10 баллов +17.1 +13.0 77 +18 +18 1007.7 989.3

 

Местоположение метеостанции Юрга (Кемеровская область, Россия): широта 55.72 долгота 84.78 высота над уровнем моря 158 м.

В архиве по умолчанию представлена погода в Юрге за последнюю неделю. Архивные данные за месяц целиком и за предыдущие месяцы, начиная с января 2011 года, Вы можете получить, выбрав интересующий диапазон дат из раскрывающегося списка и нажав кнопку "Ввод!".


*Определитесь, кто Вы:
робот инопланетянин человек

Внимание! Время в таблицах - всемирное. Для получения местного времени необходимо прибавить поправку, которая равна 7 ч.

Смотрите также архив погоды в соседних городах и на ближайших метеорологических станциях:

Погода в Болотном (Новосибирская область, Россия) (24 км)
Погода в Тогучине (Новосибирская область, Россия) (61 км)
Погода в Тайге (Кемеровская область, Россия) (65 км)
Погода в Топках (Кемеровская область, Россия) (72 км)
Погода в Кожевниково (Томская область, Россия) (78 км)
Погода в Мошково (Новосибирская область, Россия) (87 км)
Погода в Томске (Томская область, Россия) (87 км)
Погода в Барзасе (Кемеровская область, Россия) (93 км)
Погода в Кемерово АМС (Кемеровская область, Россия) (96 км)
Погода в Кемерово (Кемеровская область, Россия) (105 км)

Пояснения к столбцам:

Ветер - указаны скорость ветра в м/с - средняя за 10 мин, порывы в срок и между сроками (в фигурных скобках) и направление, откуда дует ветер: С - северный, СВ - северо-восточный, В - восточный, ЮВ - юго-восточный, Ю - южный, ЮЗ - юго-западный, З - западный, СЗ - северо-западный.
Видимость - горизонтальная дальность видимости в метрах или километрах. При видимости от 1 до 10 км при отсутствии осадков обычно наблюдается дымка, при ухудшении видимости до 1 км и менее - туман. В сухую погоду видимость может ухудшаться дымом, пылью или мглою.
Явления - указаны атмосферные явления, наблюдавшиеся в срок или в последний час перед сроком; фигурными скобками обозначены явления, наблюдавшиеся между сроками (за 1-3 часа до срока); квадратными скобками обозначены град или гололедные отложения с указанием их диаметра в мм.
Облачность - указаны через наклонную черту общая и нижняя облачность в баллах и высота нижней границы облаков в метрах; квадратными скобками обозначены формы облаков: Ci - перистые, Cs - перисто-слоистые, Cc - перисто-кучевые, Ac - высококучевые, As - высокослоистые, Sc - слоисто-кучевые, Ns - слоисто-дождевые, Cu - кучевые, Cb - кучево-дождевые. Подробнее классификацию облаков см. в Атласе облаков (PDF).
T - Температура воздуха - температура, измеренная на высоте 2 м над землей.
Td - Температура точки росы - температура, при понижении до которой содержащийся в воздухе водяной пар достигнет насыщения.
f - Относительная влажность воздуха - влажноcть воздуха, измеренная на высоте 2 м над землей.
Te - Эффективная температура - температура, которую ощущает одетый по сезону человек в тени. Характеристика душности погоды. При расчете учитывается влияние влажности воздуха и скорости ветра на теплоощущения человека.
Tes - Эффективная температура на солнце - температура, которую ощущает человек, с поправкой на солнечный нагрев. Характеристика знойности погоды. Зависит от высоты солнца над горизонтом, облачности и скорости ветра. Ночью, в пасмурную погоду, а также при ветре 12 м/с и более поправка равна нулю.
P - Атмосферное давление - приведенное к уровню моря атмосферное давление.
Po - Атмосферное давление - измеренное на уровне метеостанции атмосферное давление.
Tmin - Минимальная температура - минимум температуры воздуха на высоте 2 м над землей.
Tmax - Максимальная температура - максимум температуры воздуха на высоте 2 м над землей.
R - Количество осадков - Количество выпавших осадков за период времени, мм. При наведении курсора мыши на число - период времени, за который выпало указанное количество осадков.
R24 - Количество осадков - Количество выпавших осадков за 24 часа, мм.
S - Снежный покров - Высота снежного покрова, см. При наведении курсора мыши на число - состояние снежного покрова и степень покрытия местности в баллах.